{"data":{"norad_id":43798,"epoch":"2026-05-25T04:40:55.718976Z","epoch_age_seconds":64983,"freshness":"FRESH","line1":"1 43798U 18099AS  26145.19508934  .00034762  00000+0  66908-3 0  9998","line2":"2 43798  97.4382 223.0040 0003299 300.8639  59.2286 15.47817259410870","mean_motion":15.47817259,"eccentricity":0.0003299,"inclination_deg":97.4382,"raan_deg":223.004,"arg_perigee_deg":300.8639,"mean_anomaly_deg":59.2286,"bstar":0.00066908,"rev_number":41087,"period_min":93.034238481766,"perigee_km":420.86894036985,"apogee_km":425.35640490386,"semimajor_km":6801.2496726369,"source":"CELESTRAK","updated_at":"2026-05-25T13:37:55.898398Z"}}